www.pogodaiklimat.ru

Погода и климат >> Архив погоды >> Индия >> Purnea


ПОГОДА в Purnea

  • Прогноз погоды в Purnea
  • Монитор погоды в Purnea
  • Климат города

АРХИВ ПОГОДЫ в Purnea

Время (UTC), дата Ветер
(напр.,м/с)
 
Видим.   Явления Облачность Т
(С)
Тd
(С)
f
(%)
Тe
(С)
Тes
(С)
Комфортность P
(гПа)
Po
(гПа)
Тmin
(С)
Tmax
(С)
R
(мм)
R24
(мм)
S
(см)
03 8.08 ЮВ 2 4000 м 4/4 600 м
[Sc]
+31.0 +26.0 75 +46 +54 опасность
перегрева
1002.2 1002.0 +26.9
06 8.08 ЮВ 2 4000 м 8/6 600 м
[Sc diur, vesp Ac trans]
+32.0 +25.8 70 +47 +53 опасность
перегрева
1002.0 1002.0
09 8.08 ЮВ 1 4000 м 8/5 600 м
[Sc diur, vesp As op]
+33.0 +26.0 67 +49 +53 опасность
перегрева
1000.3 1000.0
12 8.08 штиль 0 4000 м 8/5 600 м
[Sc Ac trans]
+31.4 +26.3 74 +47 +48 опасность
перегрева
999.8 1000.0 +34.0
00 9.08 штиль 0 4000 м 5/4 600 м
[Sc Ac trans]
+27.8 +26.7 94 +43 +43 опасность
перегрева
1003.4 1003.0 0.4
03 9.08 ЮВ 1 4000 м 5/4 600 м
[Sc Ac trans]
+30.6 +27.3 83 +49 +56 опасность
перегрева
1004.3 1004.0 +27.5 0.4
06 9.08 В 2 4000 м 5/5 600 м
[Sc diur, vesp]
+33.4 +26.5 67 +50 +62 опасность
перегрева
1003.7 1004.0
09 9.08 ЮВ 1 4000 м 8/5 600 м
[Sc diur, vesp Ac trans]
+34.0 +26.5 65 +51 +56 опасность
перегрева
1001.6 1002.0
12 9.08 ЮВ 1 4000 м 6/4 600 м
[Sc Ci fib]
+33.2 +24.7 61 +46 +47 опасность
перегрева
1000.8 1001.0 +35.2
00 10.08 штиль 0 4000 м 8/4 600 м
[Sc Ac trans]
+27.6 +26.5 94 +42 +43 опасность
перегрева
1002.2 1002.0
03 10.08 штиль 0 4000 м 8/6 600 м
[Sc diur, vesp Ac trans]
+32.2 +27.2 75 +51 +55 опасность
перегрева
1003.1 1003.0 +27.5
06 10.08 В 1 4000 м 8/6 600 м
[Sc diur, vesp Ac trans]
+33.0 +26.3 68 +49 +56 опасность
перегрева
1002.4 1002.0
09 10.08 В 1 4000 м 8/5 600 м
[Sc diur, vesp Ac trans]
+33.8 +26.3 65 +50 +55 опасность
перегрева
1000.4 1000.0
12 10.08 штиль 0 4000 м 8/4 600 м
[Sc Ac trans]
+33.6 +26.7 67 +51 +51 опасность
перегрева
998.5 999.0 +35.4
00 11.08 СВ 2 2000 м мгла 10/5 480 м
[St As op]
+27.8 +26.4 92 +42 +42 опасность
перегрева
1000.1 1000.0
03 11.08 СВ 1 2000 м в посл. час морось {гроза} 8/5 600 м
[Sc As op]
+28.0 +25.4 86 +41 +44 опасность
перегрева
1000.6 1001.0 +26.9 0.0
06 11.08 штиль 0 4000 м 6/4 600 м
[Sc Ac trans]
+29.4 +26.9 86 +46 +60 опасность
перегрева
999.9 1000.0
09 11.08 В 1 4000 м 6/5 600 м
[Sc Ac trans]
+33.0 +26.9 70 +51 +57 опасность
перегрева
997.4 997.0
12 11.08 штиль 0 4000 м 5/5 600 м
[Sc diur, vesp]
+32.8 +27.6 74 +52 +53 опасность
перегрева
996.1 996.0 +35.0
00 12.08 штиль 0 2000 м слабый дождь {гроза} 10/5 450 м
[Cb calv As op]
+27.0 +27.0 100 +42 +42 опасность
перегрева
997.8 998.0 5
03 12.08 штиль 0 2000 м слабый дождь {гроза} 10/5 450 м
[St As op]
+25.6 +25.6 100 +37 +39 очень
душно
998.8 999.0 +25.3 98
06 12.08 СВ 1 2000 м слабый дождь {гроза} 10/6 450 м
[Frnb As op]
+26.4 +26.4 100 +40 +42 очень
душно
998.8 999.0 5
09 12.08 В 1 4000 м в посл. час дождь 9/5 600 м
[Sc Ac trans]
+27.6 +27.0 97 +43 +47 опасность
перегрева
996.7 997.0 5
12 12.08 штиль 0 4000 м 8/4 600 м
[Sc Ac trans]
+30.8 +28.1 86 +51 +52 опасность
перегрева
995.2 995.0 +32.4 5
00 13.08 В 2 2000 м мгла 9/5 600 м
[Sc Ac trans]
+27.4 +26.6 95 +42 +42 опасность
перегрева
997.8 998.0 5
03 13.08 ЮВ 1 4000 м 9/6 450 м
[St Ac trans]
+29.6 +26.8 85 +46 +49 опасность
перегрева
999.9 1000.0 +27.1 5
06 13.08 ЮВ 1 4000 м 9/6 600 м
[Sc diur, vesp Ac trans]
+31.8 +26.8 75 +49 +55 опасность
перегрева
999.5 1000.0
09 13.08 штиль 0 4000 м 6/5 600 м
[Sc Ac trans]
+33.0 +26.9 70 +51 +58 опасность
перегрева
997.1 997.0
12 13.08 штиль 0 4000 м 5/3 600 м
[Sc Ac trans]
+32.2 +26.4 72 +49 +49 опасность
перегрева
996.2 996.0 +33.8
00 14.08 штиль 0 4000 м 8/5 600 м
[Sc diur, vesp Ac trans]
+27.2 +26.1 94 +41 +41 опасность
перегрева
998.6 999.0 0.0
03 14.08 СВ 1 4000 м 6/4 600 м
[Sc Ac trans]
+31.8 +27.1 76 +50 +56 опасность
перегрева
999.4 999.0 +26.9 0.0
06 14.08 В 1 4000 м 5/5 600 м
[Sc diur, vesp]
+33.2 +26.6 68 +50 +62 опасность
перегрева
998.5 999.0
09 14.08 ЮВ 1 4000 м 6/5 600 м
[Sc diur, vesp Ac trans]
+34.8 +26.5 62 +51 +58 опасность
перегрева
996.4 996.0
12 14.08 штиль 0 4000 м 6/0
[Ac trans Ci fib]
+33.0 +27.5 73 +52 +53 опасность
перегрева
995.7 996.0 +36.4
00 15.08 штиль 0 4000 м 8/5 600 м
[Sc Ac trans]
+27.8 +26.1 90 +42 +42 опасность
перегрева
998.1 998.0

 

Местоположение метеостанции Purnea (Bihar, Индия): широта 25.27 долгота 87.47 высота над уровнем моря 38 м.

В архиве по умолчанию представлена погода в Purnea за последнюю неделю. Архивные данные за месяц целиком и за предыдущие месяцы, начиная с января 2011 года, Вы можете получить, выбрав интересующий диапазон дат из раскрывающегося списка и нажав кнопку "Ввод!".


*Определитесь, кто Вы:
робот инопланетянин человек

Внимание! Время в таблицах - всемирное. Для получения местного времени необходимо прибавить поправку, которая в Purnea равна 5.5 ч.

Смотрите также архив погоды в соседних городах и на ближайших метеорологических станциях:

Погода в Bhagalpur (Bihar, Индия) (53 км)
Погода в Malda (West Bengal, Индия) (72 км)
Погода в Badalgachhi (Бангладеш) (115 км)
Погода в Dinajpur (Бангладеш) (129 км)
Погода в Balurghat (West Bengal, Индия) (132 км)
Погода в Biratnagar (Непал) (136 км)
Погода в Dimla (Бангладеш) (142 км)
Погода в Baharampur (West Bengal, Индия) (150 км)
Погода в Saidpur (Бангладеш) (155 км)
Погода в Rajshahi (Бангладеш) (159 км)

Пояснения к столбцам:

Ветер - указаны скорость ветра в м/с - средняя за 10 мин, порывы в срок и между сроками (в фигурных скобках) и направление, откуда дует ветер: С - северный, СВ - северо-восточный, В - восточный, ЮВ - юго-восточный, Ю - южный, ЮЗ - юго-западный, З - западный, СЗ - северо-западный.
Видимость - горизонтальная дальность видимости в метрах или километрах. При видимости от 1 до 10 км при отсутствии осадков обычно наблюдается дымка, при ухудшении видимости до 1 км и менее - туман. В сухую погоду видимость может ухудшаться дымом, пылью или мглою.
Явления - указаны атмосферные явления, наблюдавшиеся в срок или в последний час перед сроком; фигурными скобками обозначены явления, наблюдавшиеся между сроками (за 1-3 часа до срока); квадратными скобками обозначены град или гололедные отложения с указанием их диаметра в мм.
Облачность - указаны через наклонную черту общая и нижняя облачность в баллах и высота нижней границы облаков в метрах; квадратными скобками обозначены формы облаков: Ci - перистые, Cs - перисто-слоистые, Cc - перисто-кучевые, Ac - высококучевые, As - высокослоистые, Sc - слоисто-кучевые, Ns - слоисто-дождевые, Cu - кучевые, Cb - кучево-дождевые. Подробнее классификацию облаков см. в Атласе облаков (PDF).
T - Температура воздуха - температура, измеренная на высоте 2 м над землей.
Td - Температура точки росы - температура, при понижении до которой содержащийся в воздухе водяной пар достигнет насыщения.
f - Относительная влажность воздуха - влажноcть воздуха, измеренная на высоте 2 м над землей.
Te - Эффективная температура - температура, которую ощущает одетый по сезону человек в тени. Характеристика душности погоды. При расчете учитывается влияние влажности воздуха и скорости ветра на теплоощущения человека.
Tes - Эффективная температура на солнце - температура, которую ощущает человек, с поправкой на солнечный нагрев. Характеристика знойности погоды. Зависит от высоты солнца над горизонтом, облачности и скорости ветра. Ночью, в пасмурную погоду, а также при ветре 12 м/с и более поправка равна нулю.
P - Атмосферное давление - приведенное к уровню моря атмосферное давление.
Po - Атмосферное давление - измеренное на уровне метеостанции атмосферное давление.
Tmin - Минимальная температура - минимум температуры воздуха на высоте 2 м над землей.
Tmax - Максимальная температура - максимум температуры воздуха на высоте 2 м над землей.
R - Количество осадков - Количество выпавших осадков за период времени, мм. При наведении курсора мыши на число - период времени, за который выпало указанное количество осадков.
R24 - Количество осадков - Количество выпавших осадков за 24 часа, мм.
S - Снежный покров - Высота снежного покрова, см. При наведении курсора мыши на число - состояние снежного покрова и степень покрытия местности в баллах.